This demonstration page uses our WeatherBlox Daily Observations layout. Learn more.

Left ArrowRight Arrow

34.02893, -84.19858

Hourly Observations for April 4, 2022

Temp ( °F °C ) Dew Point ( °F °C ) Humidity (%) Winds ( mph kmh ) Pressure ( in mb ) Visibility ( mi km ) Precip ( " mm )
12:53 am 00:53 Clear 46 7.8 33 0.6 61 61 Calm 29.98 1015 10 16 0.00 0.00
4:53 am 04:53 Clear 39 3.9 34 1.1 82 82 Calm 29.98 1015 10 16 0.00 0.00
5:53 am 05:53 Clear 42 5.6 33 0.6 71 71 Calm 29.98 1015 10 16 0.00 0.00
6:53 am 06:53 Clear 43 6.1 32 0 65 65 Calm 29.99 1016 10 16 0.00 0.00
7:53 am 07:53 Sunny 47 8.3 30 -1.1 52 52 VRB 3 6 30.01 1016 10 16 0.00 0.00
8:53 am 08:53 Sunny 51 10.6 31 -0.6 46 46 VRB 6 9 30.04 1017 10 16 0.00 0.00
9:53 am 09:53 Sunny 55 12.8 31 -0.6 40 40 Calm 30.05 1018 10 16 0.00 0.00
10:53 am 10:53 Sunny 58 14.4 31 -0.6 36 36 VRB 6 9 30.06 1018 10 16 0.00 0.00
11:53 am 11:53 Sunny 63 17.2 34 1.1 34 34 undefined N/A 30.06 1018 10 16 0.00 0.00
12:53 pm 12:53 Sunny 65 18.3 35 1.7 33 33 SSW 6 9 30.05 1018 10 16 0.00 0.00
1:53 pm 13:53 Sunny 68 20 33 0.6 27 27 Calm 30.02 1017 10 16 0.00 0.00
2:53 pm 14:53 Sunny 69 20.6 33 0.6 26 26 S 7 11 30.00 1016 10 16 0.00 0.00
3:53 pm 15:53 Sunny 71 21.7 32 0 24 24 undefined N/A 29.96 1015 10 16 0.00 0.00
4:53 pm 16:53 Sunny 73 22.8 31 -0.6 21 21 W 3 6 29.94 1014 10 16 0.00 0.00
5:53 pm 17:53 Sunny 73 22.8 32 0 22 22 NW 3 6 29.92 1013 10 16 0.00 0.00
6:53 pm 18:53 Sunny 73 22.8 30 -1.1 20 20 Calm 29.92 1013 10 16 0.00 0.00
7:53 pm 19:53 Sunny 67 19.4 35 1.7 31 31 Calm 29.91 1013 10 16 0.00 0.00
8:53 pm 20:53 Clear 60 15.6 36 2.2 41 41 Calm 29.93 1013 10 16 0.00 0.00
9:53 pm 21:53 Clear 55 12.8 38 3.3 53 53 Calm 29.94 1014 10 16 0.00 0.00
10:53 pm 22:53 Clear 51 10.6 40 4.4 66 66 Calm 29.93 1014 10 16 0.00 0.00
11:53 pm 23:53 Clear 51 10.6 40 4.4 66 66 Calm 29.93 1014 10 16 0.00 0.00

Powered by AerisWeather